Location: Newark
(53.3867°N, 14.6147°E)
Time: 06:59:44
(UTC+00:00)

Envisat - Pass Details

Date: 08 April 2020
Orbit: 764 x 766 km, 98.1° (Epoch: 04 June)

Event Time Altitude Azimuth Distance (km) Brightness Sun altitude
Rises 18:23:07 0° 226° (SW) 3,227 6.6 -5.5°
Reaches altitude 10° 18:27:17 10° 260° (W) 2,308 6.5 -6.1°
Maximum altitude 18:28:52 11° 278° (W) 2,218 6.9 -6.3°
Drops below altitude 10° 18:30:27 10° 296° (WNW) 2,314 7.3 -6.5°
Sets 18:34:40 0° 330° (NNW) 3,248 7.2 -7.1°
